Bellingham, WA
on Monday, November 19, 2012

Monday
Previous Day Next Day
Daily Summary
 ActualAverageRecord
Temperature
Mean Temperature °F 42°F  
Max Temperature 53°F 49°F 63°F (2006)
Min Temperature 44°F 36°F 23°F (1956)
Degree Days
Heating Degree Days 16 23  
Month to date heating degree days 390  
Cooling Degree Days 0 0  
Month to date cooling degree days 0  
Year to date cooling degree days 42  
Moisture
Dew Point 45°F   
Average Humidity 85    
Maximum Humidity 100    
Minimum Humidity 66    
Precipitation
Precipitation 0.69 in 0.20 in 1.50 in (2002)
Month to date precipitation 3.75  
Year to date precipitation 29.56  
Wind
Wind Speed 13 mph   
Max Wind Speed 25 mph   
Max Gust Speed 39 mph   
Visibility 8 miles   
Events Rain   

Key: T is trace of precipitation, MM is missing value
Source: NWS Daily Summary
Time(PST)TemperatureDew PointHumidity Pressure Visibility Wind DirectionWind SpeedGust SpeedPrecipitationEvents Conditions
12:53 AM 53.1°F 42.1°F 66% 29.51 in 10.0 miles SE 17.3 mph 33.4 mph N/A   Overcast
1:53 AM 51.1°F 43.0°F 74% 29.51 in 9.0 miles SE 25.3 mph 36.8 mph 0.00 in Rain Light Rain
2:01 AM 51.8°F 44.6°F 76% 29.50 in 7.0 miles SSE 25.3 mph 39.1 mph 0.00 in Rain Light Rain
2:50 AM 51.8°F 42.8°F 71% 29.50 in 10.0 miles SSE 17.3 mph 28.8 mph 0.00 in   Overcast
2:53 AM 51.1°F 43.0°F 74% 29.52 in 10.0 miles SSE 18.4 mph 28.8 mph 0.00 in   Overcast
3:23 AM 51.8°F 42.8°F 71% 29.49 in 10.0 miles SSE 18.4 mph 24.2 mph N/A   Mostly Cloudy
3:53 AM 51.1°F 43.0°F 74% 29.49 in 10.0 miles SSE 18.4 mph 26.5 mph N/A   Mostly Cloudy
4:53 AM 52.0°F 44.1°F 74% 29.50 in 10.0 miles SE 18.4 mph 28.8 mph N/A   Overcast
5:53 AM 53.1°F 44.1°F 71% 29.49 in 10.0 miles SSE 18.4 mph 24.2 mph 0.00 in Rain Light Rain
6:53 AM 52.0°F 45.0°F 77% 29.47 in 10.0 miles SE 18.4 mph 31.1 mph 0.00 in Rain Light Rain
7:53 AM 51.1°F 45.0°F 80% 29.49 in 9.0 miles SE 17.3 mph 21.9 mph 0.02 in Rain Light Rain
8:53 AM 50.0°F 44.1°F 80% 29.48 in 7.0 miles ESE 9.2 mph 19.6 mph 0.03 in Rain Light Rain
9:00 AM 48.2°F 44.6°F 87% 29.45 in 6.0 miles ESE 10.4 mph - 0.00 in Rain Light Rain
9:53 AM 46.9°F 43.0°F 86% 29.47 in 5.0 miles East 8.1 mph - 0.08 in Rain Light Rain
10:26 AM 46.4°F 44.6°F 93% 29.42 in 3.0 miles North 8.1 mph - 0.07 in Rain Rain
10:53 AM 45.0°F 43.0°F 93% 29.43 in 3.0 miles NNE 9.2 mph - 0.10 in Rain Rain
11:04 AM 44.6°F 42.8°F 93% 29.40 in 2.5 miles NNE 8.1 mph - 0.03 in Rain Rain
11:53 AM 45.0°F 44.1°F 97% 29.40 in 2.5 miles North 6.9 mph - 0.19 in Rain Rain
12:27 PM 44.6°F 42.8°F 93% 29.32 in 4.0 miles NE 11.5 mph - 0.08 in Rain Light Rain
12:51 PM 44.6°F 44.6°F 100% 29.35 in 2.5 miles NNW 6.9 mph - 0.13 in Rain Heavy Rain
12:53 PM 45.0°F 43.0°F 93% 29.37 in 2.5 miles North 5.8 mph - 0.14 in Rain Heavy Rain
1:03 PM 44.6°F 42.8°F 93% 29.35 in 1.8 miles North 6.9 mph - 0.06 in Rain Heavy Rain
1:10 PM 44.6°F 44.6°F 100% 29.34 in 2.5 miles Variable 4.6 mph - 0.08 in Rain Rain
1:21 PM 44.6°F 42.8°F 93% 29.37 in 3.0 miles WNW 8.1 mph - 0.10 in Rain Rain
1:53 PM 46.0°F 44.1°F 93% 29.36 in 10.0 miles NW 5.8 mph - 0.12 in Rain Light Rain
2:00 PM 46.4°F 44.6°F 93% 29.32 in 10.0 miles NNE 5.8 mph - 0.00 in   Overcast
2:34 PM 46.4°F 44.6°F 93% 29.33 in 8.0 miles NNW 4.6 mph - 0.00 in   Overcast
2:53 PM 46.0°F 44.1°F 93% 29.38 in 8.0 miles Variable 3.5 mph - 0.00 in   Overcast
3:20 PM 53.6°F 48.2°F 82% 29.35 in 8.0 miles South 10.4 mph 23.0 mph N/A   Overcast
3:51 PM 51.8°F 48.2°F 88% 29.38 in 10.0 miles Variable 3.5 mph - 0.00 in Rain Light Rain
3:53 PM 51.1°F 48.9°F 92% 29.40 in 9.0 miles Calm Calm - 0.00 in Rain Light Rain
4:00 PM 50.0°F 48.2°F 94% 29.38 in 9.0 miles WSW 3.5 mph - 0.00 in Rain Light Rain
4:45 PM 51.8°F 48.2°F 88% 29.40 in 10.0 miles SSE 10.4 mph 16.1 mph 0.00 in   Overcast
4:48 PM 51.8°F 48.2°F 88% 29.40 in 10.0 miles SSE 11.5 mph - 0.00 in   Overcast
4:53 PM 51.1°F 48.0°F 89% 29.42 in 10.0 miles South 8.1 mph - 0.00 in   Overcast
5:53 PM 51.1°F 48.0°F 89% 29.45 in 10.0 miles South 8.1 mph - N/A   Overcast
6:53 PM 50.0°F 46.0°F 86% 29.48 in 8.0 miles Variable 3.5 mph - 0.01 in Rain Light Rain
7:53 PM 48.9°F 45.0°F 86% 29.54 in 10.0 miles Variable 3.5 mph - 0.00 in   Overcast
8:53 PM 51.1°F 41.0°F 68% 29.58 in 10.0 miles SSW 9.2 mph 20.7 mph N/A   Overcast
9:53 PM 46.9°F 43.0°F 86% 29.62 in 10.0 miles South 3.5 mph - N/A   Scattered Clouds
10:53 PM 48.0°F 43.0°F 83% 29.65 in 7.0 miles SE 4.6 mph - 0.00 in Rain Light Rain
11:53 PM 48.0°F 44.1°F 86% 29.68 in 10.0 miles SSE 3.5 mph - 0.00 in   Overcast
Moon Phase
Nov. 19 Nov. 20 Nov. 28 Dec. 06 Dec. 13
Sunrise:07:26 AM (PST) Moon Rise:12:19 PM (PST)11/19
Sunset:04:24 PM (PST) Moon Set:11:12 PM (PST)11/19

Copyright © 2014 The Weather Underground, Inc.